Temperature
7 7 7 7 7 7 7 7 7 7 7 7 7 6 6 6 6 6 7 7 7 7 8 8 8 9 9 10 10 11 12 13 13 14 14 14 14 14 14 15 15 16 16
7 7 8 7 7 7 7 7 6 6 6 6 6 5 5 5 5 5 5 6 6 6 6 7 7 8 8 8 9 9 10 11 12 13 14 14 14 14 14 14 15 15 15
7 8 8 8 7 7 7 6 6 6 5 5 5 5 5 4 4 4 4 4 5 5 5 6 6 6 7 7 8 8 9 10 11 12 12 13 13 13 13 13 14 14 15
7 8 8 8 7 7 7 6 6 5 5 4 4 4 4 4 4 4 4 4 4 4 4 4 4 5 5 6 7 7 8 8 9 10 11 12 12 13 13 13 13 13 14
7 8 8 8 8 8 7 6 5 5 4 4 4 4 4 4 4 3 3 3 3 3 3 3 3 3 4 4 5 6 6 7 8 9 10 10 11 11 12 12 12 13 13
7 8 8 8 8 7 7 6 6 5 5 4 4 4 4 3 3 3 3 3 3 3 3 3 3 2 2 3 3 3 4 5 7 8 8 9 9 10 10 11 12 12 12
7 7 8 8 7 7 7 6 6 5 4 4 4 3 3 3 3 3 3 3 3 3 3 3 2 2 2 2 2 2 2 3 5 6 7 7 8 8 8 8 10 11 12
7 7 7 7 7 7 6 6 5 5 4 4 3 3 3 3 3 3 3 3 2 2 2 2 2 2 2 1 1 1 1 2 3 4 5 6 6 7 6 6 8 10 11
6 7 6 7 6 6 5 5 5 4 4 3 3 3 3 3 3 3 3 3 2 2 2 2 1 1 1 1 1 1 1 1 2 2 3 3 5 5 5 5 6 8 9
6 6 6 6 6 6 6 5 4 4 3 3 3 3 3 4 3 3 3 3 2 2 2 1 1 1 0 0 0 -0 -0 0 1 1 1 2 3 3 3 4 5 6 7
5 5 6 6 6 6 5 5 4 4 3 3 3 3 3 3 3 3 3 2 2 2 1 1 1 0 0 0 -0 -1 -1 -1 -1 -1 -0 0 1 1 2 3 3 4 5
5 5 5 6 6 5 5 4 4 3 3 3 3 3 3 2 2 2 2 1 1 1 1 1 0 0 -0 -0 -1 -2 -2 -3 -3 -3 -2 -2 -1 -0 1 2 2 3 4
5 4 5 5 5 5 5 4 3 3 2 2 2 2 1 1 1 1 0 -0 -1 -1 -1 -1 -1 -2 -2 -2 -2 -3 -3 -4 -4 -4 -4 -3 -3 -2 -1 -0 1 2 2
4 4 4 4 5 5 4 4 3 2 1 1 1 0 0 0 -0 -1 -1 -2 -3 -4 -4 -5 -5 -5 -5 -5 -5 -5 -5 -5 -5 -6 -5 -5 -4 -3 -2 -1 -0 1 1
4 4 4 4 4 4 4 3 2 1 1 0 -0 -1 -1 -1 -1 -2 -3 -4 -4 -5 -6 -6 -6 -6 -6 -6 -6 -6 -6 -6 -6 -7 -7 -6 -6 -5 -4 -3 -1 -1 0
4 3 3 4 4 4 3 2 2 1 0 -0 -1 -1 -1 -2 -2 -3 -4 -4 -6 -6 -7 -7 -7 -7 -8 -8 -8 -8 -8 -8 -7 -8 -8 -7 -7 -6 -5 -4 -2 -1 -0
4 3 3 3 3 3 3 2 1 1 -0 -0 -1 -1 -2 -2 -3 -4 -5 -5 -6 -7 -7 -8 -8 -8 -8 -9 -9 -9 -9 -9 -9 -9 -9 -8 -8 -7 -6 -4 -3 -2 -1
4 3 3 3 3 3 3 2 1 0 -0 -1 -1 -1 -2 -3 -4 -5 -5 -6 -7 -8 -8 -8 -9 -9 -9 -9 -10 -10 -10 -10 -9 -9 -9 -9 -9 -8 -7 -6 -4 -3 -2
4 3 3 3 3 3 2 1 0 0 -0 -1 -1 -2 -3 -4 -4 -5 -6 -7 -8 -8 -8 -9 -9 -9 -10 -10 -10 -10 -10 -10 -10 -10 -10 -10 -9 -8 -7 -6 -5 -4 -2
4 3 2 2 2 2 2 1 1 0 -0 -0 -1 -2 -3 -4 -5 -6 -7 -7 -8 -9 -9 -9 -9 -10 -10 -10 -10 -10 -10 -10 -10 -10 -10 -10 -9 -9 -7 -6 -5 -4 -3
4 3 2 2 2 2 2 2 1 1 0 -1 -1 -3 -4 -4 -6 -6 -7 -8 -9 -9 -9 -9 -10 -10 -10 -10 -10 -11 -11 -10 -10 -11 -10 -10 -10 -9 -8 -7 -6 -5 -4
4 3 2 2 2 2 2 1 1 0 -0 -1 -3 -4 -4 -5 -6 -7 -8 -8 -9 -9 -9 -10 -10 -10 -10 -10 -11 -11 -11 -11 -10 -10 -11 -11 -10 -10 -9 -8 -7 -6 -5
4 3 2 1 2 2 2 1 1 -0 -1 -2 -3 -3 -4 -6 -7 -7 -8 -9 -9 -10 -10 -10 -10 -10 -10 -10 -10 -11 -11 -11 -11 -11 -11 -11 -11 -10 -9 -8 -7 -6 -5
4 3 2 2 2 2 1 1 0 -1 -1 -2 -3 -4 -5 -6 -7 -8 -8 -9 -9 -10 -10 -10 -10 -10 -11 -11 -10 -11 -11 -11 -11 -11 -11 -10 -11 -10 -10 -9 -8 -7 -6
4 3 2 2 2 1 1 1 -0 -1 -2 -2 -3 -4 -5 -6 -7 -8 -9 -9 -10 -10 -10 -10 -10 -10 -10 -11 -11 -11 -11 -11 -11 -11 -11 -10 -10 -9 -9 -9 -8 -7 -6
4 3 2 2 1 1 1 0 -0 -1 -2 -3 -4 -5 -5 -6 -7 -8 -9 -9 -10 -10 -10 -11 -11 -10 -10 -11 -11 -11 -11 -11 -11 -11 -11 -11 -11 -10 -9 -9 -8 -7 -6
Wind_Speed
6 12 16 17 19 20 21 21 22 23 24 25 25 26 26 27 27 27 28 28 29 29 29 30 30 30 31 31 31 31 31 31 31 32 32 30 27 27 26 25 23 17 18
7 12 16 17 18 19 20 20 21 22 23 24 24 25 25 26 26 26 27 27 28 28 29 29 29 30 30 31 31 31 31 31 31 32 31 27 26 27 26 26 26 22 22
9 13 15 15 16 18 18 19 20 21 22 23 24 24 25 25 25 25 26 26 26 27 27 28 28 29 30 30 30 31 31 31 31 32 29 24 25 26 26 27 27 26 25
11 13 13 14 15 17 18 19 20 20 21 22 23 24 24 24 25 25 25 25 26 26 26 27 27 28 28 29 30 30 31 31 31 30 24 23 23 24 26 26 27 27 27
12 13 12 13 15 16 17 18 18 19 20 21 22 23 23 24 24 24 25 25 26 26 26 26 26 27 27 28 29 29 30 30 31 27 24 24 23 24 25 25 26 27 27
12 12 11 12 13 14 16 16 17 19 20 20 21 22 23 23 23 24 24 25 25 26 26 26 26 26 26 27 28 28 28 29 29 25 24 23 22 24 25 24 25 26 27
10 9 9 10 11 12 14 16 16 18 19 19 20 22 22 22 22 23 23 24 25 26 26 27 27 27 27 27 27 27 27 27 26 25 24 23 22 25 25 24 25 26 27
9 8 8 8 9 10 10 13 15 16 17 18 19 21 22 22 22 23 24 25 26 26 27 27 27 27 28 28 27 27 26 26 25 24 23 22 24 26 25 25 25 26 27
9 8 8 10 10 10 10 11 13 14 16 18 18 21 22 22 22 23 24 25 26 27 27 28 27 28 29 28 27 27 27 28 24 20 22 22 26 27 27 26 26 27 27
8 8 9 10 9 10 10 10 12 13 15 17 18 20 21 21 22 22 23 25 26 27 28 28 28 30 29 28 27 28 28 25 21 22 21 22 27 28 28 28 28 28 28
7 8 9 9 9 10 9 10 11 12 14 15 16 19 19 20 20 21 23 26 27 28 28 28 29 30 29 27 28 29 26 21 24 22 22 25 28 29 30 30 30 29 29
8 7 9 7 7 9 9 10 10 10 12 13 14 17 17 19 19 20 23 24 26 27 27 28 29 28 27 24 26 27 22 24 22 21 22 29 31 31 32 32 32 31 30
8 6 7 5 5 7 9 9 10 9 10 12 12 14 15 16 17 18 19 20 22 23 22 24 24 24 24 25 25 25 25 24 21 22 25 31 33 33 33 33 33 32 31
8 7 5 4 5 5 6 7 8 9 9 11 11 11 12 13 14 16 16 18 18 18 19 19 20 22 23 24 24 24 25 24 24 25 26 32 34 35 35 35 34 34 33
8 7 5 3 4 3 3 5 7 8 8 10 9 9 11 11 12 14 15 17 18 18 17 18 19 19 20 21 22 23 24 26 27 27 26 32 35 36 37 36 36 35 34
8 8 5 3 3 2 3 5 7 7 8 8 8 9 10 11 13 14 14 15 16 16 18 18 18 18 17 18 18 21 23 26 26 27 29 31 35 37 37 37 37 35 34
9 8 6 3 1 2 4 5 7 7 7 7 7 8 9 11 13 14 13 13 15 18 18 18 18 16 14 15 12 18 21 22 25 27 30 29 30 34 36 37 37 35 34
9 8 6 3 0 2 3 6 7 7 6 6 6 7 8 11 13 13 12 13 17 18 17 14 10 6 8 9 10 10 16 19 22 26 28 29 30 29 32 36 36 35 33
9 9 7 5 2 1 3 6 7 6 6 6 6 7 8 10 12 13 13 15 17 16 14 14 8 7 9 10 11 10 8 11 16 24 24 28 30 30 29 32 34 34 32
9 9 7 5 4 1 2 4 5 5 6 7 6 7 9 10 12 13 14 14 16 12 8 7 10 9 8 9 14 14 12 12 13 13 18 22 25 28 28 28 25 25 28
10 9 7 5 3 2 0 1 3 3 4 6 7 8 9 11 12 13 13 13 13 7 7 9 9 10 9 8 10 13 13 12 13 12 12 14 19 26 27 24 20 17 16
11 10 8 7 4 2 1 1 3 4 4 7 8 7 9 11 13 13 12 11 12 8 9 9 9 8 11 9 10 15 14 14 11 13 12 15 17 17 19 22 20 18 15
11 11 9 7 4 3 2 2 3 3 4 4 3 4 9 13 14 13 13 13 12 9 8 9 9 10 12 12 7 8 11 14 18 13 12 14 13 14 16 16 18 17 17
11 10 9 7 5 4 3 3 3 4 4 5 4 4 10 12 13 13 14 13 12 11 8 9 9 9 11 13 11 7 9 12 13 16 12 10 14 15 15 15 15 16 17
11 10 9 8 7 5 4 4 4 5 4 4 5 6 6 9 12 14 14 12 12 11 10 9 9 10 9 11 12 12 13 12 12 12 17 18 15 13 13 15 14 13 16
11 10 9 8 8 7 6 6 6 5 6 6 7 6 5 5 8 12 13 13 14 12 10 9 8 11 10 11 10 11 12 12 13 12 14 17 16 16 15 13 13 12 13
Wind_Direction
25 22 18 18 21 23 25 26 27 27 27 25 24 23 22 21 19 18 16 14 13 11 10 8 6 5 3 2 360 357 355 353 352 350 344 340 342 343 345 349 347 340 338
33 30 24 22 24 26 27 28 28 27 26 24 22 21 20 19 17 16 15 13 11 9 7 6 4 2 360 358 356 354 352 350 349 347 342 342 343 341 344 347 345 342 338
53 44 28 25 28 29 29 29 27 25 23 22 20 18 17 16 15 14 13 11 9 7 5 3 1 358 356 355 353 350 348 347 346 344 343 341 341 336 338 343 342 341 341
65 54 33 31 33 32 31 29 26 24 22 19 17 15 14 12 12 10 10 8 6 4 2 0 358 355 353 351 349 346 345 343 343 342 339 335 334 331 332 336 338 338 337
76 67 42 36 36 34 31 28 25 22 20 17 15 13 11 9 8 7 7 5 3 1 359 357 355 352 350 348 345 342 341 339 339 339 332 328 327 326 326 329 333 334 334
81 77 56 41 38 35 31 27 23 20 17 14 12 10 8 7 6 5 4 2 360 357 356 354 351 349 348 345 342 339 337 336 336 331 326 321 321 320 320 324 328 329 328
88 86 73 48 38 33 29 24 20 17 13 11 10 8 5 4 3 2 1 359 357 355 353 351 348 347 345 342 339 337 335 333 331 326 320 315 316 315 316 320 324 324 323
90 82 75 53 37 28 25 20 14 11 9 7 7 6 3 2 1 360 359 357 354 353 351 348 346 345 343 340 338 336 334 332 327 318 314 314 315 313 313 316 318 318 318
89 74 65 57 35 18 15 16 7 7 6 4 5 4 2 1 359 357 357 353 352 351 349 346 345 344 341 339 338 336 334 330 328 318 317 316 310 309 310 312 312 312 312
109 83 55 52 36 18 4 4 2 3 3 2 3 2 2 360 357 354 353 350 349 349 347 345 345 342 341 340 338 335 333 332 325 321 315 309 306 306 306 307 307 307 307
121 99 71 46 30 16 2 3 360 360 0 1 1 359 360 357 352 350 348 347 348 347 345 344 344 342 342 339 336 333 333 326 321 316 309 304 304 305 304 303 303 302 302
114 97 82 56 30 20 6 356 354 354 358 355 359 358 357 355 349 349 346 344 345 343 343 342 341 342 339 334 332 331 325 321 319 313 309 308 306 303 301 299 299 298 296
112 99 96 82 49 30 2 353 345 345 355 348 352 354 356 351 346 345 343 339 339 338 338 336 337 335 332 330 328 325 322 322 317 313 309 306 303 300 298 296 295 293 292
120 116 102 93 74 43 3 339 332 344 351 339 344 350 356 347 343 342 336 334 333 331 331 333 331 326 325 325 323 320 321 320 316 312 307 304 302 300 297 294 291 289 287
137 130 121 113 80 40 345 328 337 336 338 328 336 349 352 349 341 336 331 328 327 328 331 328 321 319 320 319 318 318 317 315 312 309 306 304 302 299 295 292 288 286 284
144 135 115 92 67 12 352 343 326 323 318 323 333 343 347 350 340 332 327 323 321 326 325 318 315 315 313 312 313 314 312 309 307 307 306 304 301 297 294 290 286 283 281
146 137 129 144 80 6 356 332 310 300 309 319 327 336 343 349 336 330 320 317 318 321 318 314 311 309 310 313 310 307 306 305 304 303 303 301 298 295 291 288 284 281 277
146 143 137 161 66 3 342 312 294 295 312 313 324 331 338 339 329 326 317 313 314 317 314 309 303 308 307 304 302 301 302 301 301 302 301 299 297 293 289 286 283 279 276
157 148 150 149 187 297 310 298 301 310 316 318 323 322 326 326 324 323 315 307 313 314 308 309 317 305 303 304 303 300 299 302 301 300 299 298 296 293 287 282 279 276 273
152 144 155 161 176 192 300 316 314 315 319 311 305 306 318 320 320 319 308 307 311 307 303 303 303 300 299 302 307 307 301 296 298 296 297 301 304 302 294 284 278 274 271
155 158 165 168 167 157 171 323 308 308 300 295 293 299 313 315 314 308 301 304 305 301 298 298 302 305 305 303 308 309 304 293 291 295 297 305 305 305 301 296 289 282 276
169 169 169 171 162 167 159 247 251 265 264 275 277 303 313 307 303 304 301 300 300 297 298 299 303 304 309 312 310 312 311 309 302 305 301 298 299 301 303 301 298 293 286
175 170 170 151 167 192 189 246 277 283 286 296 320 315 303 300 300 299 299 298 297 297 296 299 302 308 311 309 298 301 306 307 312 303 296 295 297 300 298 297 293 290 285
169 150 146 154 183 196 200 233 272 283 285 290 291 279 292 302 305 304 300 300 301 298 293 301 313 306 306 309 308 293 285 291 300 307 308 296 298 300 302 303 304 301 294
153 145 150 162 190 197 202 229 251 265 275 286 289 288 294 302 303 302 301 305 301 298 295 297 301 301 302 301 306 307 303 300 290 293 302 307 308 303 302 303 302 297 292
142 144 154 175 196 195 206 227 240 259 279 290 294 297 297 292 295 298 304 307 302 297 296 297 300 302 301 299 304 305 304 303 303 299 296 299 302 302 302 300 297 294 291
Height
1617 1615 1613 1611 1609 1607 1604 1601 1599 1596 1594 1592 1589 1587 1584 1582 1580 1577 1575 1573 1571 1569 1567 1565 1563 1560 1558 1556 1554 1552 1551 1549 1548 1548 1548 1549 1548 1548 1547 1547 1547 1547 1547
1615 1614 1612 1610 1608 1606 1603 1601 1599 1596 1594 1591 1589 1587 1584 1581 1579 1577 1574 1572 1570 1568 1566 1564 1562 1559 1557 1555 1552 1550 1548 1547 1545 1544 1545 1545 1545 1545 1544 1544 1544 1544 1544
1613 1612 1611 1609 1607 1605 1603 1600 1598 1596 1593 1591 1588 1586 1583 1581 1578 1576 1573 1571 1568 1566 1564 1562 1560 1558 1556 1553 1551 1549 1546 1544 1542 1541 1541 1540 1541 1541 1541 1540 1540 1540 1541
1612 1611 1610 1608 1606 1604 1602 1600 1597 1595 1593 1590 1588 1585 1583 1580 1577 1575 1572 1569 1566 1564 1562 1560 1557 1555 1553 1551 1549 1547 1545 1542 1540 1538 1537 1536 1536 1537 1537 1536 1537 1537 1537
1611 1610 1609 1607 1605 1603 1601 1599 1596 1594 1592 1589 1587 1584 1582 1579 1576 1574 1571 1568 1565 1562 1560 1557 1555 1552 1550 1548 1545 1543 1542 1540 1537 1535 1534 1533 1532 1532 1532 1532 1532 1532 1532
1609 1609 1608 1606 1604 1602 1600 1597 1595 1593 1590 1588 1585 1583 1580 1578 1575 1572 1569 1566 1563 1560 1558 1555 1552 1549 1547 1544 1542 1540 1537 1535 1534 1532 1530 1529 1527 1527 1527 1527 1527 1527 1528
1608 1607 1606 1605 1603 1601 1599 1597 1594 1592 1589 1587 1584 1582 1579 1576 1574 1571 1568 1564 1561 1558 1556 1552 1550 1547 1544 1541 1538 1536 1533 1530 1529 1528 1527 1525 1523 1523 1522 1521 1521 1521 1522
1607 1606 1605 1604 1602 1600 1598 1595 1593 1590 1587 1585 1583 1580 1577 1575 1572 1569 1566 1562 1559 1556 1553 1550 1547 1544 1540 1537 1534 1532 1529 1526 1523 1522 1521 1520 1520 1519 1518 1516 1515 1515 1516
1605 1605 1604 1602 1601 1598 1596 1593 1591 1588 1586 1584 1581 1579 1576 1573 1570 1567 1564 1560 1557 1554 1550 1547 1544 1540 1537 1534 1531 1528 1524 1522 1519 1517 1515 1515 1515 1514 1513 1511 1510 1509 1510
1603 1603 1602 1601 1599 1597 1594 1592 1590 1587 1585 1582 1580 1577 1574 1571 1568 1565 1561 1558 1555 1551 1547 1544 1540 1536 1533 1529 1526 1523 1519 1516 1514 1511 1510 1508 1508 1508 1507 1505 1504 1503 1503
1602 1601 1600 1599 1597 1595 1593 1591 1588 1586 1583 1581 1578 1575 1572 1569 1566 1563 1559 1556 1552 1548 1544 1541 1536 1532 1528 1524 1521 1517 1514 1510 1508 1505 1503 1502 1502 1502 1501 1499 1498 1496 1496
1599 1598 1597 1596 1595 1593 1591 1589 1586 1583 1581 1578 1575 1572 1569 1566 1563 1560 1556 1553 1549 1545 1541 1537 1533 1528 1524 1519 1515 1512 1508 1505 1502 1499 1497 1496 1495 1494 1493 1492 1491 1489 1489
1597 1596 1595 1594 1592 1591 1589 1586 1583 1581 1578 1575 1572 1569 1566 1563 1559 1555 1551 1547 1543 1540 1536 1532 1528 1524 1520 1516 1511 1507 1503 1500 1496 1493 1490 1489 1488 1486 1485 1484 1483 1482 1482
1594 1593 1592 1591 1590 1588 1586 1583 1580 1578 1575 1572 1569 1565 1562 1558 1554 1550 1546 1542 1538 1534 1530 1526 1523 1519 1516 1512 1508 1504 1499 1495 1491 1487 1483 1482 1480 1478 1477 1476 1475 1475 1474
1591 1590 1589 1588 1587 1585 1583 1580 1578 1575 1572 1569 1565 1562 1558 1554 1550 1546 1541 1537 1534 1530 1526 1522 1518 1515 1511 1507 1504 1500 1495 1490 1485 1481 1477 1474 1472 1470 1468 1467 1467 1466 1466
1588 1587 1586 1585 1584 1582 1580 1577 1574 1571 1568 1566 1562 1559 1555 1551 1546 1542 1538 1534 1530 1527 1523 1519 1515 1511 1507 1503 1499 1496 1491 1486 1480 1475 1471 1466 1463 1460 1459 1458 1457 1458 1458
1584 1583 1582 1582 1581 1579 1577 1574 1571 1568 1565 1563 1560 1556 1552 1548 1543 1539 1535 1531 1527 1524 1520 1516 1512 1508 1504 1500 1495 1490 1485 1480 1475 1470 1464 1459 1455 1451 1449 1448 1448 1448 1449
1580 1579 1579 1578 1577 1576 1574 1571 1568 1565 1563 1560 1557 1553 1549 1545 1540 1536 1532 1528 1524 1521 1517 1512 1508 1504 1500 1495 1490 1485 1480 1475 1470 1464 1458 1453 1448 1443 1441 1439 1439 1439 1440
1576 1575 1575 1574 1574 1572 1570 1567 1565 1562 1560 1557 1554 1550 1546 1542 1537 1533 1529 1525 1521 1518 1513 1510 1505 1501 1496 1490 1485 1480 1474 1469 1463 1458 1452 1446 1441 1437 1433 1431 1430 1430 1431
1572 1571 1571 1570 1570 1568 1566 1564 1562 1559 1557 1554 1551 1547 1543 1539 1534 1530 1526 1522 1518 1514 1510 1506 1501 1497 1492 1487 1481 1474 1468 1462 1457 1451 1446 1440 1434 1429 1426 1424 1423 1422 1423
1566 1566 1567 1566 1566 1564 1563 1561 1558 1556 1553 1550 1547 1544 1540 1536 1531 1527 1522 1519 1515 1511 1507 1503 1498 1493 1488 1483 1477 1468 1461 1456 1450 1445 1440 1434 1428 1423 1419 1417 1416 1415 1415
1561 1561 1562 1562 1561 1560 1559 1557 1554 1552 1549 1546 1544 1540 1537 1532 1528 1524 1520 1516 1512 1507 1503 1499 1495 1490 1484 1480 1474 1465 1456 1448 1443 1439 1434 1428 1422 1417 1412 1409 1408 1407 1408
1556 1556 1557 1557 1557 1556 1555 1553 1550 1548 1545 1543 1540 1537 1533 1528 1525 1521 1516 1512 1508 1504 1500 1496 1492 1487 1480 1475 1471 1466 1457 1446 1437 1429 1426 1421 1417 1412 1408 1404 1402 1402 1402
1551 1551 1552 1553 1553 1552 1551 1549 1546 1544 1542 1539 1536 1532 1528 1525 1521 1517 1513 1509 1505 1501 1496 1492 1488 1483 1478 1471 1466 1461 1456 1448 1439 1427 1419 1415 1412 1407 1403 1400 1397 1396 1396
1546 1546 1547 1548 1549 1548 1547 1545 1543 1540 1538 1535 1532 1528 1524 1521 1517 1513 1509 1505 1501 1496 1492 1488 1484 1479 1474 1469 1463 1456 1450 1443 1437 1430 1419 1410 1405 1401 1399 1396 1393 1391 1390
1540 1540 1542 1544 1544 1544 1543 1541 1539 1537 1534 1531 1527 1524 1520 1516 1512 1509 1505 1501 1496 1492 1488 1484 1479 1475 1470 1465 1459 1454 1447 1440 1433 1427 1419 1410 1403 1397 1394 1391 1389 1387 1386